User: anonymous   Login
Location: Unspecified
(0.0000°N, 0.0000°E)
Time: 19:11:28
(UTC+00:00)
Language:

IBEX - Orbit

View from above orbital plane
View from above orbital plane
View from above satellite
View from above satellite

Ground track
Ground track

The orbit data is extracted from the following two-line orbital elements,

1 33401U 08051A   17046.30122294 -.00002781  00000-0  00000+0 0  9994
2 33401  21.4241  93.8181 6101883  23.0685   2.3234  0.10818784  3529
Epoch (UTC): 15 February 2017 07:13:45
Eccentricity: 0.6101883
inclination: 21.4241°
perigee height: 66143 km
apogee height: 293184 km
right ascension of ascending node: 93.8181°
argument of perigee: 23.0685°
revolutions per day: 0.10818784
mean anomaly at epoch: 2.3234°
orbit number at epoch: 352

The dashed part of the orbit path shows where the satellite is in the earth's shadow,  

DLR